This is the latest recevied weather packets stored in our database for station/object N3WXO-1. If no packets are shown the sender has not sent any weather packets the latest 10 day(s).
| Time | Temp. | Humidity | Pressure | Rain* | Wind** | Luminosity | Snow |
|---|---|---|---|---|---|---|---|
| 1777398023 | 15° C | 53% | 1020.5 hPa | 0 mm | - | 128 W/m² | - |
| 1777397713 | 15.56° C | 55% | 1020.4 hPa | 0 mm | - | 151 W/m² | - |
| 1777397430 | 15.56° C | 55% | 1020.4 hPa | 0 mm | - | 172 W/m² | - |
| 1777397126 | 15.56° C | 55% | 1020.5 hPa | 0 mm | - | 169 W/m² | - |
| 1777396822 | 15.56° C | 56% | 1020.5 hPa | 0 mm | - | 174 W/m² | - |
| 1777396535 | 15° C | 55% | 1020.4 hPa | 0 mm | - | 185 W/m² | - |
| 1777396227 | 15° C | 56% | 1020.5 hPa | 0 mm | - | 200 W/m² | - |
| 1777395923 | 15° C | 57% | 1020.5 hPa | 0 mm | - | 206 W/m² | - |
| 1777395615 | 15° C | 57% | 1020.7 hPa | 0 mm | - | 202 W/m² | - |
| 1777395324 | 15° C | 63% | 1020.7 hPa | 0 mm | - | 211 W/m² | - |
| 1777395017 | 14.44° C | 62% | 1020.7 hPa | 0 mm | - | 251 W/m² | - |
| 1777394733 | 14.44° C | 62% | 1020.7 hPa | 0 mm | - | 230 W/m² | - |
| 1777394420 | 14.44° C | 62% | 1020.9 hPa | 0 mm | - | 202 W/m² | - |
| 1777394132 | 14.44° C | 64% | 1021.1 hPa | 0 mm | - | 204 W/m² | - |
| 1777393827 | 14.44° C | 61% | 1021.1 hPa | 0 mm | - | 178 W/m² | - |
| 1777393520 | 14.44° C | 62% | 1021.1 hPa | 0 mm | - | 127 W/m² | - |
| 1777393234 | 15° C | 61% | 1021.2 hPa | 0 mm | - | 137 W/m² | - |
| 1777392928 | 15° C | 58% | 1021.3 hPa | 0 mm | - | 149 W/m² | - |
| 1777392619 | 15° C | 58% | 1021.3 hPa | 0 mm | - | 158 W/m² | - |
| 1777392331 | 15° C | 57% | 1021.4 hPa | 0 mm | - | 151 W/m² | - |
| 1777392027 | 15° C | 57% | 1021.3 hPa | 0 mm | - | 142 W/m² | - |
| 1777391720 | 15° C | 57% | 1021.4 hPa | 0 mm | - | 137 W/m² | - |
| 1777391420 | 15° C | 56% | 1021.4 hPa | 0 mm | - | 123 W/m² | - |
| 1777391124 | 15° C | 54% | 1021.3 hPa | 0 mm | - | 120 W/m² | - |
| 1777390815 | 15.56° C | 54% | 1021.3 hPa | 0 mm | - | 125 W/m² | - |
* Rain latest hour (hover to see other rain measurements)
** Current wind speed in m/s (hover to see current wind gust speed)